Tracking 29892 objects as of 21-Nov-2024
HD Live streaming from Space Station
objects crossing your sky now

THORAD DELTA 1 DEB

Track THORAD DELTA 1 DEB now!
10-day predictions


NORAD ID: 8151
Int'l Code: 1974-089R
Perigee: 1,084.1 km
Apogee: 1,603.9 km
Inclination: 101.8 °
Period: 112.4 minutes
Semi major axis: 7714 km
RCS: 0.0604 m2 (small)
Launch date: November 15, 1974
Source: United States (US)
Launch site: AIR FORCE WESTERN TEST RANGE (AFWTR)

Note: This is SATELLITE DEBRIS
Your satellite tracking list
Your tracking list is empty




NASA's NSSDC Master Catalog

Two Line Element Set (TLE):
1 08151U 74089R   24325.91789162  .00000053  00000-0  34012-3 0  9993
2 08151 101.7811  44.9012 0336931 131.0638 294.0994 12.81147854335372
Source of the keplerian elements: AFSPC